Change the Weather History Date:

Saturday, December 1, 2012

  Actual Average Record
Temperature  
Mean Temperature 40 °F -  
Max Temperature 53 °F 31 °F 64 °F (1998)
Min Temperature 28 °F 15 °F -5 °F (2005)
Degree Days  
Heating Degree Days 24    
Moisture  
Dew Point 37 °F    
Average Humidity 90    
Maximum Humidity 100    
Minimum Humidity 62    
Precipitation  
Precipitation 0.00 in - - ()
Sea Level Pressure  
Sea Level Pressure 29.78 in    
Wind  
Wind Speed 12 mph (SSW)    
Max Wind Speed 21 mph    
Max Gust Speed 26 mph    
Visibility 4 miles    
Events Fog    
Averages and records for this station are not official NWS values.
T = Trace of Precipitation, MM = Missing Value Source: NWS Daily Summary

Daily Weather History Graph

Daily Weather History Graph

Search for Another Location

Airport or City:

Trip Planner

Search our weather history database for the weather conditions in past years. The results will help you decide how hot, cold, wet, or windy it might be!

Date:

Astronomy

Dec. 01, 2012 Rise Set
Actual Time 7:35 AM CST 4:43 PM CST
Civil Twilight 7:03 AM CST 5:16 PM CST
Nautical Twilight 6:27 AM CST 5:52 PM CST
Astronomical Twilight 5:52 AM CST 6:26 PM CST
Moon 7:36 PM CST (12/1) 9:47 AM CST (12/1)
Length of Visible Light 10h 13m
Length of Day
9h 08m
Waning Gibbous, 91% of the Moon is Illuminated
Dec 1
Waning Gibbous
Dec 6
Last Quarter
Dec 13
New
Dec 19
First Quarter
Dec 28
Full

Hourly Weather History & Observations

Time (CST) Temp. Windchill Dew Point Humidity Pressure Visibility Wind Dir Wind Speed Gust Speed Precip Events Conditions
12:13 AM 33.8 °F 24.8 °F 32.0 °F 93% 29.95 in 2.5 mi SE 12.7 mph 21.9 mph N/A   Overcast
12:32 AM 32.0 °F 22.5 °F 32.0 °F 100% 29.94 in 2.0 mi SE 12.7 mph - N/A   Mostly Cloudy
12:53 AM 33.8 °F 23.9 °F 32.0 °F 93% 29.93 in 2.0 mi SSE 15.0 mph 20.7 mph N/A   Mostly Cloudy
1:12 AM 32.0 °F 22.1 °F 30.2 °F 93% 29.92 in 2.0 mi SSE 13.8 mph - N/A   Clear
1:33 AM 32.0 °F 22.1 °F 30.2 °F 93% - 2.0 mi SSE 13.8 mph - N/A   Clear
1:53 AM 32.0 °F 22.5 °F 32.0 °F 100% 29.90 in 2.5 mi SSE 12.7 mph - N/A   Clear
2:12 AM 32.0 °F 22.5 °F 32.0 °F 100% 29.90 in 2.5 mi SSE 12.7 mph - N/A   Clear
2:33 AM 32.0 °F 21.6 °F 32.0 °F 100% 29.89 in 2.0 mi SSE 15.0 mph - N/A   Clear
2:53 AM 33.8 °F 23.9 °F 32.0 °F 93% 29.88 in 2.0 mi SSE 15.0 mph - N/A   Clear
3:12 AM 32.0 °F 22.5 °F 32.0 °F 100% 29.87 in 2.0 mi SSE 12.7 mph - N/A   Clear
3:33 AM 32.0 °F 22.5 °F 32.0 °F 100% 29.85 in 2.0 mi SSE 12.7 mph - N/A   Clear
3:53 AM 33.8 °F 23.9 °F 32.0 °F 93% 29.84 in 2.5 mi SSE 15.0 mph - N/A   Clear
4:12 AM 33.8 °F 23.9 °F 33.8 °F 100% 29.83 in 3.0 mi SSE 15.0 mph - N/A   Clear
4:33 AM 35.6 °F 27.1 °F 33.8 °F 93% 29.82 in 4.0 mi South 12.7 mph 20.7 mph N/A   Clear
4:53 AM 35.6 °F 26.6 °F 33.8 °F 93% 29.81 in 4.0 mi SSE 13.8 mph - N/A   Clear
5:12 AM 35.6 °F 26.6 °F 33.8 °F 93% 29.80 in 4.0 mi SSE 13.8 mph 17.3 mph N/A   Clear
5:33 AM 35.6 °F 28.6 °F 33.8 °F 93% 29.80 in 4.0 mi South 9.2 mph 16.1 mph N/A   Clear
5:53 AM 35.6 °F 27.5 °F 33.8 °F 93% 29.79 in 5.0 mi South 11.5 mph - N/A   Clear
6:12 AM 35.6 °F 27.5 °F 33.8 °F 93% 29.78 in 5.0 mi South 11.5 mph 16.1 mph N/A   Clear
6:33 AM 37.4 °F 29.3 °F 35.6 °F 93% 29.77 in 4.0 mi South 12.7 mph 24.2 mph N/A   Mostly Cloudy
6:53 AM 37.4 °F 29.3 °F 37.4 °F 100% 29.76 in 2.5 mi South 12.7 mph 23.0 mph N/A   Overcast
7:12 AM 39.2 °F 31.6 °F 39.2 °F 100% 29.75 in 0.8 mi South 12.7 mph 20.7 mph N/A   Overcast
7:33 AM 42.8 °F 35.1 °F 41.0 °F 93% 29.75 in 0.8 mi South 16.1 mph 23.0 mph N/A   Overcast
7:53 AM 42.8 °F 34.8 °F 42.8 °F 100% 29.73 in 2.0 mi South 17.3 mph 24.2 mph N/A   Overcast
8:12 AM 42.8 °F 34.3 °F 41.0 °F 93% 29.73 in 2.5 mi South 19.6 mph 26.5 mph N/A   Overcast
8:33 AM 42.8 °F 34.0 °F 41.0 °F 93% 29.74 in 1.5 mi South 20.7 mph 25.3 mph N/A   Overcast
8:53 AM 42.8 °F 35.4 °F 41.0 °F 93% 29.76 in 1.5 mi South 15.0 mph - N/A   Overcast
9:12 AM 42.8 °F 34.5 °F 42.8 °F 100% 29.76 in 1.2 mi SSW 18.4 mph 23.0 mph N/A   Overcast
9:33 AM 42.8 °F 34.5 °F 41.0 °F 93% 29.75 in 0.8 mi SSW 18.4 mph 24.2 mph N/A   Overcast
9:52 AM 42.8 °F 35.1 °F 41.0 °F 93% 29.75 in 0.8 mi South 16.1 mph 24.2 mph N/A   Overcast
10:13 AM 42.8 °F 34.3 °F 42.8 °F 100% 29.73 in 0.8 mi South 19.6 mph 25.3 mph N/A   Overcast
10:33 AM 42.8 °F 34.3 °F 42.8 °F 100% 29.73 in 0.8 mi South 19.6 mph 25.3 mph N/A   Overcast
10:52 AM 42.8 °F 35.1 °F 42.8 °F 100% 29.71 in 0.5 mi South 16.1 mph 25.3 mph N/A Fog Fog
11:13 AM 44.6 °F 38.1 °F 42.8 °F 93% 29.73 in 0.5 mi SSW 13.8 mph - N/A Fog Fog
11:33 AM 44.6 °F 37.8 °F 44.6 °F 100% 29.73 in 1.8 mi SW 15.0 mph - N/A   Overcast
11:52 AM 44.6 °F 37.2 °F 42.8 °F 93% 29.72 in 2.0 mi SW 17.3 mph - N/A   Overcast
12:13 PM 46.4 °F 39.2 °F 42.8 °F 87% 29.72 in 2.5 mi SW 18.4 mph - N/A   Overcast
12:33 PM 46.4 °F 39.5 °F 42.8 °F 87% 29.70 in 3.0 mi SSW 17.3 mph 21.9 mph N/A   Scattered Clouds
12:52 PM 46.4 °F 39.0 °F 42.8 °F 87% 29.70 in 4.0 mi SSW 19.6 mph - N/A   Clear
1:13 PM 48.2 °F - 42.8 °F 82% 29.70 in 5.0 mi SW 12.7 mph - N/A   Haze
1:33 PM 50.0 °F - 42.8 °F 76% 29.69 in 7.0 mi SW 11.5 mph - N/A   Clear
1:52 PM 51.8 °F - 41.0 °F 67% 29.70 in 7.0 mi SW 10.4 mph - N/A   Clear
2:13 PM 51.8 °F - 41.0 °F 67% 29.70 in 7.0 mi SW 10.4 mph - N/A   Clear
2:33 PM 51.8 °F - 41.0 °F 67% 29.71 in 10.0 mi SW 12.7 mph - N/A   Clear
2:52 PM 51.8 °F - 41.0 °F 67% 29.70 in 10.0 mi SW 12.7 mph - N/A   Clear
3:13 PM 53.6 °F - 41.0 °F 62% 29.70 in 10.0 mi SW 9.2 mph - N/A   Clear
3:33 PM 53.6 °F - 41.0 °F 62% 29.71 in 10.0 mi WSW 9.2 mph - N/A   Clear
3:52 PM 51.8 °F - 39.2 °F 62% 29.72 in 10.0 mi SW 6.9 mph - N/A   Clear
4:13 PM 50.0 °F - 39.2 °F 66% 29.74 in 10.0 mi SW 6.9 mph - N/A   Clear
4:32 PM 48.2 °F - 39.2 °F 71% 29.74 in 7.0 mi SSW 4.6 mph - N/A   Clear
4:53 PM 44.6 °F 43.1 °F 37.4 °F 76% 29.75 in 10.0 mi WSW 3.5 mph - N/A   Clear
5:12 PM 44.6 °F 41.4 °F 37.4 °F 76% 29.75 in 10.0 mi WSW 5.8 mph - N/A   Clear
5:32 PM 41.0 °F 39.0 °F 35.6 °F 81% 29.77 in 7.0 mi SSE 3.5 mph - N/A   Clear
5:53 PM 42.8 °F 41.1 °F 37.4 °F 81% 29.77 in 7.0 mi South 3.5 mph - N/A   Clear
6:12 PM 41.0 °F 38.0 °F 37.4 °F 87% 29.77 in 7.0 mi SW 4.6 mph - N/A   Clear
6:32 PM 39.2 °F - 35.6 °F 87% 29.77 in 7.0 mi Calm Calm - N/A   Clear
6:53 PM 39.2 °F 37.0 °F 35.6 °F 87% 29.79 in 7.0 mi WSW 3.5 mph - N/A   Clear
7:13 PM 35.6 °F - 33.8 °F 93% 29.80 in 7.0 mi Calm Calm - N/A   Clear
7:53 PM 35.6 °F 32.8 °F 35.6 °F 100% 29.81 in 5.0 mi West 3.5 mph - N/A   Clear
8:12 PM 30.2 °F 25.4 °F 30.2 °F 100% 29.80 in 5.0 mi West 4.6 mph - N/A   Clear
8:32 PM 33.8 °F - 32.0 °F 93% 29.80 in 4.0 mi Calm Calm - N/A   Clear
8:53 PM 28.4 °F - 28.4 °F 100% 29.81 in 3.0 mi Calm Calm - N/A   Scattered Clouds
9:12 PM 30.2 °F - 28.4 °F 93% 29.81 in 4.0 mi Calm Calm - N/A   Scattered Clouds
9:33 PM 30.2 °F - 30.2 °F 100% 29.81 in 3.0 mi Calm Calm - N/A   Clear
9:52 PM 32.0 °F 26.4 °F 30.2 °F 93% 29.83 in 5.0 mi WNW 5.8 mph - N/A   Clear
10:13 PM 33.8 °F - 32.0 °F 93% 29.83 in 5.0 mi Calm Calm - N/A   Clear
10:33 PM 33.8 °F 28.6 °F 32.0 °F 93% 29.84 in 5.0 mi WNW 5.8 mph - N/A   Scattered Clouds
10:52 PM 35.6 °F 32.8 °F 33.8 °F 93% 29.84 in 7.0 mi WNW 3.5 mph - N/A   Scattered Clouds
11:13 PM 33.8 °F 29.6 °F 32.0 °F 93% 29.85 in 7.0 mi NW 4.6 mph - N/A   Clear
11:33 PM 32.0 °F 28.7 °F 30.2 °F 93% 29.86 in 7.0 mi NW 3.5 mph - N/A   Clear
11:52 PM 32.0 °F 28.7 °F 30.2 °F 93% 29.86 in 7.0 mi NW 3.5 mph - N/A   Clear